Hourly Weather Roundup
Issued by NWS Central Illinois

Home | Current Version | Previous Version | Text Only | Print | Product List | Glossary On
Versions: 1 2 3 4 5 6 7 8 9 10 11 12 13 14 15 16 17 18 19 20 21 22 23 24 25 26 27 28 29 30 31 32 33 34 35 36 37 38 39 40 41 42 43 44 45 46 47 48 49 50
000
NZUS43 KILX 211510
HWRILX

AREA WEATHER ROUNDUP
NATIONAL WEATHER SERVICE, LINCOLN IL
1000 AM CDT TUE OCT 21 2014


CITY           SKY/WX    TMP DP  RH WIND       PRES   REMARKS
BLOOMINGTON    SUNNY     52  44  74 N10       30.16R
CHAMPAIGN      MOSUNNY   54  45  71 MISG      30.13R
DECATUR        SUNNY     54  46  74 N12       30.15R
FLORA          SUNNY     56  47  73 N7        30.12R
GALESBURG      SUNNY     51  44  77 NE10      30.18R
JACKSONVILLE   SUNNY     55  46  71 NE9       30.16R
LACON          SUNNY     50  42  74 N6        30.17R
LAWRENCEVILLE  PTSUNNY   57  49  74 N7        30.11S
LITCHFIELD     SUNNY     53  46  78 N6        30.14R
$$


CITY           SKY/WX    TMP DP  RH WIND       PRES   REMARKS
LINCOLN        SUNNY     55  46  72 N8        30.15R
MACOMB         SUNNY     52  44  73 NE9       30.20R
MATTOON        MOSUNNY   54  46  74 N12       30.12R
MT CARMEL AP   SUNNY     59  48  67 N9        30.11R
OLNEY-NOBLE AP SUNNY     55  46  71 NE8       30.12R
PARIS          MOSUNNY   56  47  70 N8        30.12R
PEORIA         SUNNY     53  41  63 NE12      30.17R
PONTIAC        NOT AVBL
RANTOUL        SUNNY     54  44  70 N13       30.14S
ROBINSON       PTSUNNY   57  50  79 N7        30.12S
SPRINGFIELD    SUNNY     54  45  71 N10       30.16R
TAYLORVILLE    SUNNY     52  45  76 N8        30.15R
$$

...REGIONAL REPORTS...


CITY           SKY/WX    TMP DP  RH WIND       PRES   REMARKS
CHICAGO O`HARE PTSUNNY   49  40  71 N13       30.15R
KANKAKEE       CLOUDY    50  40  66 N15       30.15R
MOLINE         SUNNY     52  42  69 NE12      30.19R
MOUNT VERNON   SUNNY     55  46  71 NE8       30.12R
PITTSFIELD     SUNNY     55  44  68 NE9       30.16S
QUINCY         SUNNY     54  42  64 NE12      30.16R
ROCKFORD       MOSUNNY   50  37  61 NE14      30.22R
$$


CITY           SKY/WX    TMP DP  RH WIND       PRES   REMARKS
BURLINGTON     SUNNY     52  44  74 NE12      30.18R
CEDAR RAPIDS   SUNNY     50  42  74 E10       30.19R
DES MOINES     SUNNY     53  43  68 E5        30.16R
KIRKSVILLE     SUNNY     54  47  77 E6        30.17R
OTTUMWA        SUNNY     52  44  74 E7        30.17R
ST LOUIS       SUNNY     57  47  69 NE6       30.14R
$$


CITY           SKY/WX    TMP DP  RH WIND       PRES   REMARKS
TERRE HAUTE    MOSUNNY   56  46  69 N8        30.11R
EVANSVILLE     SUNNY     58  46  64 NE9       30.10R
INDIANAPOLIS   PTSUNNY   48  44  86 NW12      30.09R
LAFAYETTE      CLOUDY    50  45  83 N17       30.11R
MADISON        PTSUNNY   46  38  73 NE10      30.22R
MILWAUKEE      CLOUDY    48  39  71 N13       30.18R
$$




USA.gov is the U.S. government's official web portal to all federal, state and local government web resources and services.